Time,TemperatureF,DewpointF,PressureIn,WindDirection,WindDirectionDegrees,WindSpeedMPH,WindSpeedGustMPH,Humidity,HourlyPrecipIn,Conditions,Clouds,dailyrainin,SoftwareType,DateUTC
2013-05-29 00:00:00,68.5,57.2,30.12,SSE,157,0.0,0.0,69,0.00,,,0.00,WUHU216WMR968SP,2013-05-29 04:00:00,
2013-05-29 00:05:00,68.2,57.2,30.12,SSE,157,0.0,0.0,70,0.00,,,0.00,WUHU216WMR968SP,2013-05-29 04:05:00,
2013-05-29 00:10:00,68.0,59.0,30.12,SSE,157,0.0,0.0,71,0.00,,,0.00,WUHU216WMR968SP,2013-05-29 04:10:00,
2013-05-29 00:15:00,67.8,59.0,30.12,SSE,157,0.0,0.0,71,0.00,,,0.00,WUHU216WMR968SP,2013-05-29 04:15:00,
2013-05-29 00:20:00,67.3,59.0,30.12,SSE,157,0.0,0.0,72,0.00,,,0.00,WUHU216WMR968SP,2013-05-29 04:20:00,
2013-05-29 00:25:00,66.9,57.2,30.12,SSE,157,0.0,0.0,74,0.00,,,0.00,WUHU216WMR968SP,2013-05-29 04:25:00,
2013-05-29 00:30:00,66.6,57.2,30.12,SSE,157,0.0,0.0,75,0.00,,,0.00,WUHU216WMR968SP,2013-05-29 04:30:00,
2013-05-29 00:35:00,66.4,57.2,30.12,SSE,157,0.0,0.0,75,0.00,,,0.00,WUHU216WMR968SP,2013-05-29 04:35:00,
2013-05-29 00:40:00,66.2,59.0,30.12,SSE,157,0.0,0.0,76,0.00,,,0.00,WUHU216WMR968SP,2013-05-29 04:40:00,
2013-05-29 00:45:00,65.8,59.0,30.12,SSE,157,0.0,0.0,77,0.00,,,0.00,WUHU216WMR968SP,2013-05-29 04:45:00,
2013-05-29 00:50:00,65.8,59.0,30.12,SSE,157,0.0,0.0,78,0.00,,,0.00,WUHU216WMR968SP,2013-05-29 04:50:00,
2013-05-29 00:55:00,65.7,59.0,30.12,SSE,157,0.0,0.0,78,0.00,,,0.00,WUHU216WMR968SP,2013-05-29 04:55:00,
2013-05-29 01:00:00,65.5,59.0,30.12,SSE,157,0.0,0.0,78,0.00,,,0.00,WUHU216WMR968SP,2013-05-29 05:00:00,
2013-05-29 01:05:00,65.5,59.0,30.12,SSE,157,0.0,0.0,78,0.00,,,0.00,WUHU216WMR968SP,2013-05-29 05:05:00,
2013-05-29 01:10:00,65.1,57.2,30.12,SSE,156,0.0,0.0,79,0.00,,,0.00,WUHU216WMR968SP,2013-05-29 05:10:00,
2013-05-29 01:15:00,64.9,57.2,30.12,SSE,157,0.0,0.0,80,0.00,,,0.00,WUHU216WMR968SP,2013-05-29 05:15:00,
2013-05-29 01:21:00,64.8,57.2,30.15,SSE,157,0.0,0.0,80,0.00,,,0.00,WUHU216WMR968SP,2013-05-29 05:21:00,
2013-05-29 01:26:00,64.8,57.2,30.15,SSE,157,0.0,0.0,80,0.00,,,0.00,WUHU216WMR968SP,2013-05-29 05:26:00,
2013-05-29 01:31:00,64.6,59.0,30.15,SSE,157,0.0,0.0,81,0.00,,,0.00,WUHU216WMR968SP,2013-05-29 05:31:00,
2013-05-29 01:36:00,64.4,59.0,30.12,SSE,157,0.0,0.0,81,0.00,,,0.00,WUHU216WMR968SP,2013-05-29 05:36:00,
2013-05-29 01:41:00,64.0,59.0,30.12,SSE,157,0.0,0.0,82,0.00,,,0.00,WUHU216WMR968SP,2013-05-29 05:41:00,
2013-05-29 01:46:00,63.9,59.0,30.12,SSE,157,0.0,0.0,82,0.00,,,0.00,WUHU216WMR968SP,2013-05-29 05:46:00,
2013-05-29 01:51:00,63.7,59.0,30.12,SSE,157,0.0,0.0,82,0.00,,,0.00,WUHU216WMR968SP,2013-05-29 05:51:00,
2013-05-29 01:56:00,63.5,59.0,30.12,SSE,157,0.0,0.0,83,0.00,,,0.00,WUHU216WMR968SP,2013-05-29 05:56:00,
2013-05-29 02:01:00,63.5,59.0,30.12,SSE,157,0.0,0.0,83,0.00,,,0.00,WUHU216WMR968SP,2013-05-29 06:01:00,
2013-05-29 02:06:00,63.3,57.2,30.12,SSE,157,0.0,0.0,84,0.00,,,0.00,WUHU216WMR968SP,2013-05-29 06:06:00,
2013-05-29 02:11:00,63.3,57.2,30.15,SSE,157,0.0,0.0,84,0.00,,,0.00,WUHU216WMR968SP,2013-05-29 06:11:00,
2013-05-29 02:16:00,63.3,57.2,30.15,SSE,157,0.0,0.0,85,0.00,,,0.00,WUHU216WMR968SP,2013-05-29 06:16:00,
2013-05-29 02:21:00,63.3,57.2,30.15,SE,131,0.0,0.0,85,0.00,,,0.00,WUHU216WMR968SP,2013-05-29 06:21:00,
2013-05-29 02:26:00,63.3,57.2,30.15,ESE,123,0.0,0.0,85,0.00,,,0.00,WUHU216WMR968SP,2013-05-29 06:26:00,
2013-05-29 02:31:00,63.1,57.2,30.15,ESE,123,0.0,0.0,85,0.00,,,0.00,WUHU216WMR968SP,2013-05-29 06:31:00,
2013-05-29 02:36:00,63.1,59.0,30.15,ESE,123,0.0,0.0,86,0.00,,,0.00,WUHU216WMR968SP,2013-05-29 06:36:00,
2013-05-29 02:41:00,63.1,59.0,30.15,ESE,123,0.0,0.0,86,0.00,,,0.00,WUHU216WMR968SP,2013-05-29 06:41:00,
2013-05-29 02:46:00,63.0,59.0,30.15,ESE,123,0.0,0.0,86,0.00,,,0.00,WUHU216WMR968SP,2013-05-29 06:46:00,
2013-05-29 02:51:00,62.8,59.0,30.15,ESE,123,0.0,0.0,87,0.00,,,0.00,WUHU216WMR968SP,2013-05-29 06:51:00,
2013-05-29 02:56:00,62.6,59.0,30.15,ESE,123,0.0,0.0,87,0.00,,,0.00,WUHU216WMR968SP,2013-05-29 06:56:00,
2013-05-29 03:01:00,62.4,59.0,30.15,ESE,123,0.0,0.0,88,0.00,,,0.00,WUHU216WMR968SP,2013-05-29 07:01:00,
2013-05-29 03:06:00,62.2,59.0,30.15,ESE,123,0.0,0.0,88,0.00,,,0.00,WUHU216WMR968SP,2013-05-29 07:06:00,
2013-05-29 03:11:00,62.2,59.0,30.15,ESE,123,0.0,0.0,88,0.00,,,0.00,WUHU216WMR968SP,2013-05-29 07:11:00,
2013-05-29 03:16:00,62.2,59.0,30.15,ESE,123,0.0,0.0,89,0.00,,,0.00,WUHU216WMR968SP,2013-05-29 07:16:00,
2013-05-29 03:21:00,62.2,59.0,30.15,ESE,123,0.0,0.0,89,0.00,,,0.00,WUHU216WMR968SP,2013-05-29 07:21:00,
2013-05-29 03:26:00,62.2,59.0,30.15,ESE,123,0.0,0.0,89,0.00,,,0.00,WUHU216WMR968SP,2013-05-29 07:26:00,
2013-05-29 03:31:00,62.1,59.0,30.15,ESE,123,0.0,0.0,89,0.00,,,0.00,WUHU216WMR968SP,2013-05-29 07:31:00,
2013-05-29 03:37:00,62.2,59.0,30.15,ESE,123,0.0,0.0,89,0.00,,,0.00,WUHU216WMR968SP,2013-05-29 07:37:00,
2013-05-29 03:42:00,62.1,59.0,30.15,ESE,123,0.0,0.0,89,0.00,,,0.00,WUHU216WMR968SP,2013-05-29 07:42:00,
2013-05-29 03:47:00,62.1,59.0,30.15,ESE,123,0.0,0.0,90,0.00,,,0.00,WUHU216WMR968SP,2013-05-29 07:47:00,
2013-05-29 03:52:00,61.9,59.0,30.15,ESE,123,0.0,0.0,90,0.00,,,0.00,WUHU216WMR968SP,2013-05-29 07:52:00,
2013-05-29 03:57:00,61.9,59.0,30.15,ESE,123,0.0,0.0,90,0.00,,,0.00,WUHU216WMR968SP,2013-05-29 07:57:00,
2013-05-29 04:02:00,62.1,59.0,30.15,ESE,123,0.0,0.0,90,0.00,,,0.00,WUHU216WMR968SP,2013-05-29 08:02:00,
2013-05-29 04:07:00,62.1,59.0,30.15,ESE,123,0.0,0.0,90,0.00,,,0.00,WUHU216WMR968SP,2013-05-29 08:07:00,
2013-05-29 04:12:00,61.9,59.0,30.15,ESE,123,0.0,0.0,90,0.00,,,0.00,WUHU216WMR968SP,2013-05-29 08:12:00,
2013-05-29 04:17:00,61.7,59.0,30.15,ESE,123,0.0,0.0,90,0.00,,,0.00,WUHU216WMR968SP,2013-05-29 08:17:00,
2013-05-29 04:22:00,61.7,59.0,30.18,ESE,118,0.0,0.0,90,0.00,,,0.00,WUHU216WMR968SP,2013-05-29 08:22:00,
2013-05-29 04:27:00,61.5,57.2,30.18,ESE,118,0.0,0.0,90,0.00,,,0.00,WUHU216WMR968SP,2013-05-29 08:27:00,
2013-05-29 04:32:00,61.3,59.0,30.18,ESE,118,0.0,0.0,91,0.00,,,0.00,WUHU216WMR968SP,2013-05-29 08:32:00,
2013-05-29 04:37:00,61.3,59.0,30.18,ESE,118,0.0,0.0,91,0.00,,,0.00,WUHU216WMR968SP,2013-05-29 08:37:00,
2013-05-29 04:42:00,61.3,59.0,30.18,ESE,118,0.0,0.0,91,0.00,,,0.00,WUHU216WMR968SP,2013-05-29 08:42:00,
2013-05-29 04:47:00,61.7,60.8,30.18,ESE,118,0.0,0.0,91,0.00,,,0.00,WUHU216WMR968SP,2013-05-29 08:47:00,
2013-05-29 04:52:00,61.9,60.8,30.18,ESE,118,0.0,0.0,91,0.00,,,0.00,WUHU216WMR968SP,2013-05-29 08:52:00,
2013-05-29 04:57:00,61.9,60.8,30.18,ESE,118,0.0,0.0,91,0.00,,,0.00,WUHU216WMR968SP,2013-05-29 08:57:00,
2013-05-29 05:02:00,61.7,60.8,30.18,ESE,118,0.0,0.0,91,0.00,,,0.00,WUHU216WMR968SP,2013-05-29 09:02:00,
2013-05-29 05:07:00,61.7,60.8,30.18,South,190,0.0,0.0,91,0.00,,,0.00,WUHU216WMR968SP,2013-05-29 09:07:00,
2013-05-29 05:12:00,61.7,60.8,30.18,South,190,0.0,0.0,91,0.00,,,0.00,WUHU216WMR968SP,2013-05-29 09:12:00,
2013-05-29 05:17:00,61.7,60.8,30.18,South,190,0.0,0.0,91,0.00,,,0.00,WUHU216WMR968SP,2013-05-29 09:17:00,
2013-05-29 05:22:00,61.5,59.0,30.18,South,190,0.0,0.0,91,0.00,,,0.00,WUHU216WMR968SP,2013-05-29 09:22:00,
2013-05-29 05:27:00,61.5,59.0,30.18,SE,138,0.0,0.0,91,0.00,,,0.00,WUHU216WMR968SP,2013-05-29 09:27:00,
2013-05-29 05:32:00,61.3,59.0,30.18,ESE,110,0.0,0.0,91,0.00,,,0.00,WUHU216WMR968SP,2013-05-29 09:32:00,
2013-05-29 05:37:00,61.2,59.0,30.18,ESE,110,0.0,0.0,92,0.00,,,0.00,WUHU216WMR968SP,2013-05-29 09:37:00,
2013-05-29 05:42:00,61.0,59.0,30.18,ESE,110,0.0,0.0,92,0.00,,,0.00,WUHU216WMR968SP,2013-05-29 09:42:00,
2013-05-29 05:47:00,60.8,59.0,30.18,ESE,110,0.0,0.0,92,0.00,,,0.00,WUHU216WMR968SP,2013-05-29 09:47:00,
2013-05-29 05:52:00,60.8,59.0,30.18,East,96,0.0,0.0,92,0.00,,,0.00,WUHU216WMR968SP,2013-05-29 09:52:00,
2013-05-29 05:57:00,60.8,59.0,30.18,East,96,0.0,0.0,93,0.00,,,0.00,WUHU216WMR968SP,2013-05-29 09:57:00,
2013-05-29 06:03:00,60.8,59.0,30.18,East,96,0.0,0.0,93,0.00,,,0.00,WUHU216WMR968SP,2013-05-29 10:03:00,
2013-05-29 06:08:00,61.0,59.0,30.18,East,96,0.0,0.0,93,0.00,,,0.00,WUHU216WMR968SP,2013-05-29 10:08:00,
2013-05-29 06:13:00,60.8,59.0,30.18,East,96,0.0,0.0,93,0.00,,,0.00,WUHU216WMR968SP,2013-05-29 10:13:00,
2013-05-29 06:18:00,60.6,59.0,30.18,East,96,0.0,0.0,94,0.00,,,0.00,WUHU216WMR968SP,2013-05-29 10:18:00,
2013-05-29 06:23:00,60.6,59.0,30.18,East,96,0.0,0.0,94,0.00,,,0.00,WUHU216WMR968SP,2013-05-29 10:23:00,
2013-05-29 06:28:00,60.4,59.0,30.18,East,96,0.0,0.0,94,0.00,,,0.00,WUHU216WMR968SP,2013-05-29 10:28:00,
2013-05-29 06:33:00,60.4,59.0,30.18,East,96,0.0,0.0,94,0.00,,,0.00,WUHU216WMR968SP,2013-05-29 10:33:00,
2013-05-29 06:38:00,60.4,59.0,30.18,East,96,0.0,0.0,94,0.00,,,0.00,WUHU216WMR968SP,2013-05-29 10:38:00,
2013-05-29 06:43:00,60.3,59.0,30.18,East,96,0.0,0.0,94,0.00,,,0.00,WUHU216WMR968SP,2013-05-29 10:43:00,
2013-05-29 06:48:00,60.3,59.0,30.18,East,96,0.0,0.0,95,0.00,,,0.00,WUHU216WMR968SP,2013-05-29 10:48:00,
2013-05-29 06:53:00,60.3,59.0,30.21,East,96,0.0,0.0,95,0.00,,,0.00,WUHU216WMR968SP,2013-05-29 10:53:00,
2013-05-29 06:58:00,60.3,59.0,30.21,East,97,0.0,0.0,95,0.00,,,0.00,WUHU216WMR968SP,2013-05-29 10:58:00,
2013-05-29 07:03:00,60.3,59.0,30.21,East,97,0.0,0.0,95,0.00,,,0.00,WUHU216WMR968SP,2013-05-29 11:03:00,
2013-05-29 07:08:00,60.4,59.0,30.21,East,97,0.0,0.0,95,0.00,,,0.00,WUHU216WMR968SP,2013-05-29 11:08:00,
2013-05-29 07:13:00,60.4,59.0,30.21,East,97,0.0,0.0,95,0.00,,,0.00,WUHU216WMR968SP,2013-05-29 11:13:00,
2013-05-29 07:18:00,60.8,59.0,30.21,East,97,0.0,0.0,95,0.00,,,0.00,WUHU216WMR968SP,2013-05-29 11:18:00,
2013-05-29 07:23:00,61.0,59.0,30.21,East,97,0.0,0.0,95,0.00,,,0.00,WUHU216WMR968SP,2013-05-29 11:23:00,
2013-05-29 07:28:00,61.3,59.0,30.21,East,97,0.0,0.0,95,0.00,,,0.00,WUHU216WMR968SP,2013-05-29 11:28:00,
2013-05-29 07:33:00,61.7,60.8,30.21,East,97,0.0,0.0,96,0.00,,,0.00,WUHU216WMR968SP,2013-05-29 11:33:00,
2013-05-29 07:38:00,61.9,60.8,30.21,East,97,0.0,0.0,96,0.00,,,0.00,WUHU216WMR968SP,2013-05-29 11:38:00,
2013-05-29 07:43:00,62.2,60.8,30.21,East,97,0.0,0.0,96,0.00,,,0.00,WUHU216WMR968SP,2013-05-29 11:43:00,
2013-05-29 07:48:00,62.4,60.8,30.21,East,97,0.0,0.0,96,0.00,,,0.00,WUHU216WMR968SP,2013-05-29 11:48:00,
2013-05-29 07:53:00,62.8,60.8,30.21,East,97,0.0,0.0,96,0.00,,,0.00,WUHU216WMR968SP,2013-05-29 11:53:00,
2013-05-29 07:58:00,63.1,60.8,30.21,East,97,0.0,0.0,96,0.00,,,0.00,WUHU216WMR968SP,2013-05-29 11:58:00,
2013-05-29 08:03:00,63.7,62.6,30.21,East,97,0.0,0.0,96,0.00,,,0.00,WUHU216WMR968SP,2013-05-29 12:03:00,
2013-05-29 08:08:00,64.4,62.6,30.21,East,97,0.0,0.0,96,0.00,,,0.00,WUHU216WMR968SP,2013-05-29 12:08:00,
2013-05-29 08:13:00,65.5,64.4,30.21,East,97,0.0,0.0,96,0.00,,,0.00,WUHU216WMR968SP,2013-05-29 12:13:00,
2013-05-29 08:18:00,67.3,66.2,30.21,East,97,0.0,0.0,95,0.00,,,0.00,WUHU216WMR968SP,2013-05-29 12:18:00,
2013-05-29 08:23:00,68.9,68.0,30.21,East,97,0.0,0.0,92,0.00,,,0.00,WUHU216WMR968SP,2013-05-29 12:23:00,
2013-05-29 08:29:00,70.0,66.2,30.21,East,97,0.0,0.0,89,0.00,,,0.00,WUHU216WMR968SP,2013-05-29 12:29:00,
2013-05-29 08:34:00,70.9,68.0,30.21,East,97,0.0,0.0,86,0.00,,,0.00,WUHU216WMR968SP,2013-05-29 12:34:00,
2013-05-29 08:39:00,71.6,66.2,30.21,East,97,0.0,0.0,81,0.00,,,0.00,WUHU216WMR968SP,2013-05-29 12:39:00,
2013-05-29 08:44:00,72.0,64.4,30.21,SSE,151,0.0,0.0,78,0.00,,,0.00,WUHU216WMR968SP,2013-05-29 12:44:00,
2013-05-29 08:49:00,72.7,66.2,30.21,South,171,0.0,0.0,77,0.00,,,0.00,WUHU216WMR968SP,2013-05-29 12:49:00,
2013-05-29 08:54:00,73.0,66.2,30.24,South,171,0.0,0.0,76,0.00,,,0.00,WUHU216WMR968SP,2013-05-29 12:54:00,
2013-05-29 08:59:00,73.6,64.4,30.24,South,171,0.0,0.0,74,0.00,,,0.00,WUHU216WMR968SP,2013-05-29 12:59:00,
2013-05-29 09:04:00,73.9,64.4,30.24,South,171,0.0,0.0,73,0.00,,,0.00,WUHU216WMR968SP,2013-05-29 13:04:00,
2013-05-29 09:09:00,74.3,64.4,30.24,South,171,0.0,0.0,71,0.00,,,0.00,WUHU216WMR968SP,2013-05-29 13:09:00,
2013-05-29 09:14:00,74.8,64.4,30.24,South,171,0.0,0.0,70,0.00,,,0.00,WUHU216WMR968SP,2013-05-29 13:14:00,
2013-05-29 09:19:00,75.6,64.4,30.24,South,171,0.0,0.0,69,0.00,,,0.00,WUHU216WMR968SP,2013-05-29 13:19:00,
2013-05-29 09:24:00,75.9,64.4,30.24,South,180,0.0,0.0,69,0.00,,,0.00,WUHU216WMR968SP,2013-05-29 13:24:00,
2013-05-29 09:29:00,76.3,66.2,30.24,WSW,240,0.0,0.0,68,0.00,,,0.00,WUHU216WMR968SP,2013-05-29 13:29:00,
2013-05-29 09:34:00,77.0,66.2,30.24,West,270,0.0,0.0,67,0.00,,,0.00,WUHU216WMR968SP,2013-05-29 13:34:00,
2013-05-29 09:39:00,77.2,64.4,30.24,West,273,0.0,0.0,66,0.00,,,0.00,WUHU216WMR968SP,2013-05-29 13:39:00,
2013-05-29 09:44:00,77.2,64.4,30.24,West,273,0.0,0.0,66,0.00,,,0.00,WUHU216WMR968SP,2013-05-29 13:44:00,
2013-05-29 09:49:00,77.0,66.2,30.24,West,273,0.0,0.0,67,0.00,,,0.00,WUHU216WMR968SP,2013-05-29 13:49:00,
2013-05-29 09:54:00,76.6,66.2,30.24,West,273,0.0,0.0,67,0.00,,,0.00,WUHU216WMR968SP,2013-05-29 13:54:00,
2013-05-29 09:59:00,76.5,66.2,30.24,WSW,252,0.0,0.0,67,0.00,,,0.00,WUHU216WMR968SP,2013-05-29 13:59:00,
2013-05-29 10:04:00,77.9,66.2,30.24,WNW,288,0.0,0.0,66,0.00,,,0.00,WUHU216WMR968SP,2013-05-29 14:04:00,
2013-05-29 10:09:00,78.4,66.2,30.24,SW,218,0.0,0.0,65,0.00,,,0.00,WUHU216WMR968SP,2013-05-29 14:09:00,
2013-05-29 10:14:00,76.8,64.4,30.24,SW,216,0.0,0.0,65,0.00,,,0.00,WUHU216WMR968SP,2013-05-29 14:14:00,
2013-05-29 10:19:00,76.1,66.2,30.24,SW,216,0.0,0.0,67,0.00,,,0.00,WUHU216WMR968SP,2013-05-29 14:19:00,
2013-05-29 10:24:00,77.4,66.2,30.24,SW,216,0.0,0.0,67,0.00,,,0.00,WUHU216WMR968SP,2013-05-29 14:24:00,
2013-05-29 10:29:00,78.8,66.2,30.24,SW,221,0.0,0.0,66,0.00,,,0.00,WUHU216WMR968SP,2013-05-29 14:29:00,
2013-05-29 10:34:00,79.3,66.2,30.24,West,267,0.0,0.0,64,0.00,,,0.00,WUHU216WMR968SP,2013-05-29 14:34:00,
2013-05-29 10:40:00,79.3,66.2,30.24,West,267,0.0,0.0,64,0.00,,,0.00,WUHU216WMR968SP,2013-05-29 14:40:00,
2013-05-29 10:45:00,78.8,66.2,30.24,West,265,0.0,0.0,64,0.00,,,0.00,WUHU216WMR968SP,2013-05-29 14:45:00,
2013-05-29 10:50:00,78.8,66.2,30.24,West,265,0.0,0.0,65,0.00,,,0.00,WUHU216WMR968SP,2013-05-29 14:50:00,
2013-05-29 10:55:00,78.8,66.2,30.24,West,265,0.0,0.0,64,0.00,,,0.00,WUHU216WMR968SP,2013-05-29 14:55:00,
2013-05-29 11:00:00,80.1,68.0,30.24,West,271,0.0,0.0,64,0.00,,,0.00,WUHU216WMR968SP,2013-05-29 15:00:00,
2013-05-29 11:05:00,81.1,66.2,30.24,West,271,0.0,0.0,63,0.00,,,0.00,WUHU216WMR968SP,2013-05-29 15:05:00,
2013-05-29 11:10:00,81.9,68.0,30.24,West,271,0.0,0.0,62,0.00,,,0.00,WUHU216WMR968SP,2013-05-29 15:10:00,
2013-05-29 11:15:00,81.3,66.2,30.24,WSW,252,0.0,0.0,62,0.00,,,0.00,WUHU216WMR968SP,2013-05-29 15:15:00,
2013-05-29 11:20:00,80.8,66.2,30.24,WSW,253,0.0,0.0,61,0.00,,,0.00,WUHU216WMR968SP,2013-05-29 15:20:00,
2013-05-29 11:25:00,81.1,66.2,30.24,South,175,0.0,0.0,61,0.00,,,0.00,WUHU216WMR968SP,2013-05-29 15:25:00,
2013-05-29 11:30:00,81.5,68.0,30.24,SE,137,0.0,0.0,62,0.00,,,0.00,WUHU216WMR968SP,2013-05-29 15:30:00,
2013-05-29 11:35:00,82.6,66.2,30.24,SE,137,0.0,0.0,60,0.00,,,0.00,WUHU216WMR968SP,2013-05-29 15:35:00,
2013-05-29 11:40:00,83.1,66.2,30.24,SW,226,0.0,0.0,58,0.00,,,0.00,WUHU216WMR968SP,2013-05-29 15:40:00,
2013-05-29 11:45:00,81.5,68.0,30.24,SW,225,0.0,0.0,61,0.00,,,0.00,WUHU216WMR968SP,2013-05-29 15:45:00,
2013-05-29 11:50:00,81.7,68.0,30.24,NW,324,0.0,0.0,61,0.00,,,0.00,WUHU216WMR968SP,2013-05-29 15:50:00,
2013-05-29 11:55:00,82.2,68.0,30.24,South,178,0.0,0.0,61,0.00,,,0.00,WUHU216WMR968SP,2013-05-29 15:55:00,
2013-05-29 12:00:00,82.4,66.2,30.24,East,98,0.0,0.0,59,0.00,,,0.00,WUHU216WMR968SP,2013-05-29 16:00:00,
2013-05-29 12:05:00,84.0,68.0,30.24,ENE,62,0.0,0.0,60,0.00,,,0.00,WUHU216WMR968SP,2013-05-29 16:05:00,
2013-05-29 12:10:00,84.4,68.0,30.24,West,268,0.0,0.0,58,0.00,,,0.00,WUHU216WMR968SP,2013-05-29 16:10:00,
2013-05-29 12:15:00,83.3,68.0,30.24,SSW,204,0.0,0.0,59,0.00,,,0.00,WUHU216WMR968SP,2013-05-29 16:15:00,
2013-05-29 12:20:00,82.2,66.2,30.24,SSE,167,0.0,0.0,58,0.00,,,0.00,WUHU216WMR968SP,2013-05-29 16:20:00,
2013-05-29 12:25:00,82.9,66.2,30.24,West,265,0.0,0.0,59,0.00,,,0.00,WUHU216WMR968SP,2013-05-29 16:25:00,
2013-05-29 12:30:00,82.6,66.2,30.24,SW,227,0.0,0.0,58,0.00,,,0.00,WUHU216WMR968SP,2013-05-29 16:30:00,
2013-05-29 12:35:00,83.1,66.2,30.24,West,259,0.0,0.0,58,0.00,,,0.00,WUHU216WMR968SP,2013-05-29 16:35:00,
2013-05-29 12:40:00,83.1,66.2,30.24,South,181,0.0,0.0,58,0.00,,,0.00,WUHU216WMR968SP,2013-05-29 16:40:00,
2013-05-29 12:45:00,84.4,68.0,30.24,NW,321,0.0,0.0,57,0.00,,,0.00,WUHU216WMR968SP,2013-05-29 16:45:00,
2013-05-29 12:50:00,83.8,66.2,30.24,ESE,114,0.0,0.0,56,0.00,,,0.00,WUHU216WMR968SP,2013-05-29 16:50:00,
2013-05-29 12:55:00,84.2,66.2,30.21,SE,126,0.0,0.0,55,0.00,,,0.00,WUHU216WMR968SP,2013-05-29 16:55:00,
2013-05-29 13:00:00,84.6,66.2,30.21,ENE,58,0.0,0.0,54,0.00,,,0.00,WUHU216WMR968SP,2013-05-29 17:00:00,
2013-05-29 13:06:00,84.0,66.2,30.21,NE,54,0.0,0.0,55,0.00,,,0.00,WUHU216WMR968SP,2013-05-29 17:06:00,
2013-05-29 13:11:00,84.4,66.2,30.21,SSE,150,0.0,0.0,55,0.00,,,0.00,WUHU216WMR968SP,2013-05-29 17:11:00,
2013-05-29 13:16:00,85.8,68.0,30.21,NE,40,0.0,0.0,55,0.00,,,0.00,WUHU216WMR968SP,2013-05-29 17:16:00,
2013-05-29 13:21:00,84.0,66.2,30.21,SE,138,0.0,0.0,55,0.00,,,0.00,WUHU216WMR968SP,2013-05-29 17:21:00,
2013-05-29 13:26:00,84.2,66.2,30.21,East,85,0.0,0.0,54,0.00,,,0.00,WUHU216WMR968SP,2013-05-29 17:26:00,
2013-05-29 13:31:00,84.2,66.2,30.21,SW,226,0.0,0.0,53,0.00,,,0.00,WUHU216WMR968SP,2013-05-29 17:31:00,
2013-05-29 13:36:00,85.1,68.0,30.18,South,176,0.0,0.0,54,0.00,,,0.00,WUHU216WMR968SP,2013-05-29 17:36:00,
2013-05-29 13:41:00,86.4,68.0,30.18,WSW,254,0.0,0.0,54,0.00,,,0.00,WUHU216WMR968SP,2013-05-29 17:41:00,
2013-05-29 13:46:00,86.5,66.2,30.18,WNW,291,0.0,0.0,53,0.00,,,0.00,WUHU216WMR968SP,2013-05-29 17:46:00,
2013-05-29 13:51:00,86.9,69.8,30.18,NW,322,0.0,0.0,54,0.00,,,0.00,WUHU216WMR968SP,2013-05-29 17:51:00,
2013-05-29 13:56:00,87.3,68.0,30.18,West,275,0.0,0.0,52,0.00,,,0.00,WUHU216WMR968SP,2013-05-29 17:56:00,
2013-05-29 14:01:00,87.6,68.0,30.18,WSW,243,0.0,0.0,53,0.00,,,0.00,WUHU216WMR968SP,2013-05-29 18:01:00,
2013-05-29 14:06:00,87.1,66.2,30.18,North,10,0.0,0.0,49,0.00,,,0.00,WUHU216WMR968SP,2013-05-29 18:06:00,
2013-05-29 14:11:00,85.8,66.2,30.18,NNE,12,0.0,0.0,51,0.00,,,0.00,WUHU216WMR968SP,2013-05-29 18:11:00,
2013-05-29 14:17:00,85.1,64.4,30.18,SSE,151,0.0,0.0,49,0.00,,,0.00,WUHU216WMR968SP,2013-05-29 18:17:00,
2013-05-29 14:22:00,85.3,66.2,30.18,SSW,200,0.0,0.0,51,0.00,,,0.00,WUHU216WMR968SP,2013-05-29 18:22:00,
2013-05-29 14:27:00,85.5,66.2,30.18,SSW,200,0.0,0.0,51,0.00,,,0.00,WUHU216WMR968SP,2013-05-29 18:27:00,
2013-05-29 14:32:00,85.8,64.4,30.18,SE,129,0.0,0.0,50,0.00,,,0.00,WUHU216WMR968SP,2013-05-29 18:32:00,
2013-05-29 14:37:00,86.2,64.4,30.18,WSW,239,0.0,0.0,50,0.00,,,0.00,WUHU216WMR968SP,2013-05-29 18:37:00,
2013-05-29 14:42:00,86.9,66.2,30.18,SW,229,0.0,0.0,49,0.00,,,0.00,WUHU216WMR968SP,2013-05-29 18:42:00,
2013-05-29 14:47:00,87.1,66.2,30.18,WSW,239,0.0,0.0,50,0.00,,,0.00,WUHU216WMR968SP,2013-05-29 18:47:00,
2013-05-29 14:52:00,86.7,64.4,30.18,East,99,0.0,0.0,48,0.00,,,0.00,WUHU216WMR968SP,2013-05-29 18:52:00,
2013-05-29 14:57:00,86.5,64.4,30.18,ESE,115,0.0,0.0,48,0.00,,,0.00,WUHU216WMR968SP,2013-05-29 18:57:00,
2013-05-29 15:02:00,86.0,62.6,30.18,East,92,0.0,0.0,45,0.00,,,0.00,WUHU216WMR968SP,2013-05-29 19:02:00,
2013-05-29 15:07:00,86.2,64.4,30.15,SE,145,0.0,0.0,48,0.00,,,0.00,WUHU216WMR968SP,2013-05-29 19:07:00,
2013-05-29 15:12:00,86.5,62.6,30.15,South,181,0.0,0.0,46,0.00,,,0.00,WUHU216WMR968SP,2013-05-29 19:12:00,
2013-05-29 15:17:00,86.4,62.6,30.15,South,182,0.0,0.0,47,0.00,,,0.00,WUHU216WMR968SP,2013-05-29 19:17:00,
2013-05-29 15:22:00,86.7,64.4,30.15,SSW,202,0.0,0.0,48,0.00,,,0.00,WUHU216WMR968SP,2013-05-29 19:22:00,
2013-05-29 15:27:00,86.9,66.2,30.15,NNW,337,0.0,0.0,48,0.00,,,0.00,WUHU216WMR968SP,2013-05-29 19:27:00,
2013-05-29 15:32:00,86.5,62.6,30.15,WSW,251,0.0,0.0,46,0.00,,,0.00,WUHU216WMR968SP,2013-05-29 19:32:00,
2013-05-29 15:37:00,86.7,62.6,30.15,ENE,71,0.0,0.0,46,0.00,,,0.00,WUHU216WMR968SP,2013-05-29 19:37:00,
2013-05-29 15:42:00,86.7,62.6,30.15,NW,312,0.0,0.0,46,0.00,,,0.00,WUHU216WMR968SP,2013-05-29 19:42:00,
2013-05-29 15:47:00,86.5,64.4,30.15,NW,313,0.0,0.0,48,0.00,,,0.00,WUHU216WMR968SP,2013-05-29 19:47:00,
2013-05-29 15:52:00,85.8,64.4,30.15,East,94,0.0,0.0,48,0.00,,,0.00,WUHU216WMR968SP,2013-05-29 19:52:00,
2013-05-29 15:57:00,86.2,62.6,30.15,West,278,0.0,0.0,47,0.00,,,0.00,WUHU216WMR968SP,2013-05-29 19:57:00,
2013-05-29 16:02:00,86.2,62.6,30.15,NW,321,0.0,0.0,47,0.00,,,0.00,WUHU216WMR968SP,2013-05-29 20:02:00,
2013-05-29 16:07:00,85.8,62.6,30.15,SE,142,0.0,0.0,47,0.00,,,0.00,WUHU216WMR968SP,2013-05-29 20:07:00,
2013-05-29 16:12:00,86.0,62.6,30.15,WNW,292,0.0,0.0,47,0.00,,,0.00,WUHU216WMR968SP,2013-05-29 20:12:00,
2013-05-29 16:17:00,86.0,64.4,30.15,WNW,294,0.0,0.0,48,0.00,,,0.00,WUHU216WMR968SP,2013-05-29 20:17:00,
2013-05-29 16:23:00,85.8,64.4,30.12,NW,304,0.0,0.0,48,0.00,,,0.00,WUHU216WMR968SP,2013-05-29 20:23:00,
2013-05-29 16:28:00,85.5,64.4,30.12,NNW,344,0.0,0.0,49,0.00,,,0.00,WUHU216WMR968SP,2013-05-29 20:28:00,
2013-05-29 16:33:00,85.3,64.4,30.12,NNW,344,0.0,0.0,48,0.00,,,0.00,WUHU216WMR968SP,2013-05-29 20:33:00,
2013-05-29 16:38:00,85.3,64.4,30.12,WSW,254,0.0,0.0,49,0.00,,,0.00,WUHU216WMR968SP,2013-05-29 20:38:00,
2013-05-29 16:43:00,85.3,64.4,30.12,NW,308,0.0,0.0,50,0.00,,,0.00,WUHU216WMR968SP,2013-05-29 20:43:00,
2013-05-29 16:48:00,85.3,64.4,30.12,NNW,341,0.0,0.0,50,0.00,,,0.00,WUHU216WMR968SP,2013-05-29 20:48:00,
2013-05-29 16:53:00,85.5,64.4,30.12,WNW,284,0.0,0.0,50,0.00,,,0.00,WUHU216WMR968SP,2013-05-29 20:53:00,
2013-05-29 16:58:00,85.1,64.4,30.12,SSW,197,0.0,0.0,50,0.00,,,0.00,WUHU216WMR968SP,2013-05-29 20:58:00,
2013-05-29 17:03:00,85.1,66.2,30.12,SSW,206,0.0,0.0,51,0.00,,,0.00,WUHU216WMR968SP,2013-05-29 21:03:00,
2013-05-29 17:08:00,84.9,66.2,30.12,SSW,206,0.0,0.0,53,0.00,,,0.00,WUHU216WMR968SP,2013-05-29 21:08:00,
2013-05-29 17:13:00,84.9,64.4,30.12,SSW,206,0.0,0.0,52,0.00,,,0.00,WUHU216WMR968SP,2013-05-29 21:13:00,
2013-05-29 17:18:00,85.1,66.2,30.12,SSW,206,0.0,0.0,52,0.00,,,0.00,WUHU216WMR968SP,2013-05-29 21:18:00,
2013-05-29 17:23:00,85.1,66.2,30.12,SSW,206,0.0,0.0,51,0.00,,,0.00,WUHU216WMR968SP,2013-05-29 21:23:00,
2013-05-29 17:28:00,84.7,64.4,30.12,SSW,206,0.0,0.0,52,0.00,,,0.00,WUHU216WMR968SP,2013-05-29 21:28:00,
2013-05-29 17:33:00,84.6,66.2,30.12,SSW,206,0.0,0.0,53,0.00,,,0.00,WUHU216WMR968SP,2013-05-29 21:33:00,
2013-05-29 17:38:00,84.4,64.4,30.12,SSW,206,0.0,0.0,52,0.00,,,0.00,WUHU216WMR968SP,2013-05-29 21:38:00,
2013-05-29 17:43:00,84.2,66.2,30.12,SSW,206,0.0,0.0,53,0.00,,,0.00,WUHU216WMR968SP,2013-05-29 21:43:00,
2013-05-29 17:48:00,84.2,66.2,30.12,SSW,206,0.0,0.0,53,0.00,,,0.00,WUHU216WMR968SP,2013-05-29 21:48:00,
2013-05-29 17:53:00,84.0,66.2,30.12,SSW,206,0.0,0.0,55,0.00,,,0.00,WUHU216WMR968SP,2013-05-29 21:53:00,
2013-05-29 17:58:00,84.0,66.2,30.12,West,265,0.0,0.0,54,0.00,,,0.00,WUHU216WMR968SP,2013-05-29 21:58:00,
2013-05-29 18:03:00,83.8,66.2,30.12,WSW,237,0.0,0.0,54,0.00,,,0.00,WUHU216WMR968SP,2013-05-29 22:03:00,
2013-05-29 18:08:00,83.8,66.2,30.12,WSW,237,0.0,0.0,55,0.00,,,0.00,WUHU216WMR968SP,2013-05-29 22:08:00,
2013-05-29 18:13:00,83.7,68.0,30.12,WSW,237,0.0,0.0,57,0.00,,,0.00,WUHU216WMR968SP,2013-05-29 22:13:00,
2013-05-29 18:18:00,83.7,66.2,30.12,WSW,248,0.0,0.0,56,0.00,,,0.00,WUHU216WMR968SP,2013-05-29 22:18:00,
2013-05-29 18:23:00,83.3,68.0,30.12,WSW,248,0.0,0.0,57,0.00,,,0.00,WUHU216WMR968SP,2013-05-29 22:23:00,
2013-05-29 18:28:00,83.3,68.0,30.12,SSE,162,0.0,0.0,57,0.00,,,0.00,WUHU216WMR968SP,2013-05-29 22:28:00,
2013-05-29 18:33:00,83.3,68.0,30.12,NNW,332,0.0,0.0,57,0.00,,,0.00,WUHU216WMR968SP,2013-05-29 22:33:00,
2013-05-29 18:39:00,83.3,68.0,30.12,NNW,332,0.0,0.0,57,0.00,,,0.00,WUHU216WMR968SP,2013-05-29 22:39:00,
2013-05-29 18:44:00,83.3,68.0,30.12,NNW,332,0.0,0.0,57,0.00,,,0.00,WUHU216WMR968SP,2013-05-29 22:44:00,
2013-05-29 18:49:00,83.1,66.2,30.12,NNW,332,0.0,0.0,58,0.00,,,0.00,WUHU216WMR968SP,2013-05-29 22:49:00,
2013-05-29 18:54:00,82.9,66.2,30.12,WNW,299,0.0,0.0,59,0.00,,,0.00,WUHU216WMR968SP,2013-05-29 22:54:00,
2013-05-29 18:59:00,82.8,66.2,30.12,WNW,299,0.0,0.0,59,0.00,,,0.00,WUHU216WMR968SP,2013-05-29 22:59:00,
2013-05-29 19:04:00,82.4,66.2,30.12,WNW,299,0.0,0.0,59,0.00,,,0.00,WUHU216WMR968SP,2013-05-29 23:04:00,
2013-05-29 19:09:00,82.0,66.2,30.12,SW,235,0.0,0.0,59,0.00,,,0.00,WUHU216WMR968SP,2013-05-29 23:09:00,
2013-05-29 19:14:00,81.9,66.2,30.12,SW,235,0.0,0.0,59,0.00,,,0.00,WUHU216WMR968SP,2013-05-29 23:14:00,
2013-05-29 19:19:00,81.5,66.2,30.12,NW,315,0.0,0.0,60,0.00,,,0.00,WUHU216WMR968SP,2013-05-29 23:19:00,
2013-05-29 19:24:00,81.5,66.2,30.12,NW,324,0.0,0.0,59,0.00,,,0.00,WUHU216WMR968SP,2013-05-29 23:24:00,
2013-05-29 19:29:00,81.3,64.4,30.12,NW,314,0.0,0.0,59,0.00,,,0.00,WUHU216WMR968SP,2013-05-29 23:29:00,
2013-05-29 19:34:00,81.3,64.4,30.12,North,350,0.0,0.0,59,0.00,,,0.00,WUHU216WMR968SP,2013-05-29 23:34:00,
2013-05-29 19:39:00,81.1,66.2,30.12,NNE,14,0.0,0.0,60,0.00,,,0.00,WUHU216WMR968SP,2013-05-29 23:39:00,
2013-05-29 19:44:00,80.8,66.2,30.12,NNE,14,0.0,0.0,61,0.00,,,0.00,WUHU216WMR968SP,2013-05-29 23:44:00,
2013-05-29 19:49:00,80.4,66.2,30.12,NNE,14,0.0,0.0,61,0.00,,,0.00,WUHU216WMR968SP,2013-05-29 23:49:00,
2013-05-29 19:54:00,80.1,66.2,30.12,NNE,14,0.0,0.0,61,0.00,,,0.00,WUHU216WMR968SP,2013-05-29 23:54:00,
2013-05-29 19:59:00,79.9,66.2,30.12,NNE,29,0.0,0.0,61,0.00,,,0.00,WUHU216WMR968SP,2013-05-29 23:59:00,
2013-05-29 20:04:00,79.7,66.2,30.12,NNE,31,0.0,0.0,61,0.00,,,0.00,WUHU216WMR968SP,2013-05-30 00:04:00,
2013-05-29 20:09:00,79.5,64.4,30.12,NNE,31,0.0,0.0,61,0.00,,,0.00,WUHU216WMR968SP,2013-05-30 00:09:00,
2013-05-29 20:14:00,79.0,64.4,30.12,NE,51,0.0,0.0,62,0.00,,,0.00,WUHU216WMR968SP,2013-05-30 00:14:00,
2013-05-29 20:19:00,78.6,64.4,30.12,South,173,0.0,0.0,61,0.00,,,0.00,WUHU216WMR968SP,2013-05-30 00:19:00,
2013-05-29 20:24:00,78.3,64.4,30.12,South,173,0.0,0.0,61,0.00,,,0.00,WUHU216WMR968SP,2013-05-30 00:24:00,
2013-05-29 20:29:00,78.1,64.4,30.12,South,173,0.0,0.0,61,0.00,,,0.00,WUHU216WMR968SP,2013-05-30 00:29:00,
2013-05-29 20:34:00,77.7,62.6,30.12,South,173,0.0,0.0,61,0.00,,,0.00,WUHU216WMR968SP,2013-05-30 00:34:00,
2013-05-29 20:40:00,77.4,62.6,30.12,ESE,104,0.0,0.0,60,0.00,,,0.00,WUHU216WMR968SP,2013-05-30 00:40:00,
2013-05-29 20:45:00,77.2,60.8,30.12,SSW,193,0.0,0.0,58,0.00,,,0.00,WUHU216WMR968SP,2013-05-30 00:45:00,
2013-05-29 20:50:00,77.2,60.8,30.12,SSW,193,0.0,0.0,57,0.00,,,0.00,WUHU216WMR968SP,2013-05-30 00:50:00,
2013-05-29 20:55:00,76.8,60.8,30.12,SSW,193,0.0,0.0,57,0.00,,,0.00,WUHU216WMR968SP,2013-05-30 00:55:00,
2013-05-29 21:00:00,76.5,60.8,30.12,SSW,193,0.0,0.0,58,0.00,,,0.00,WUHU216WMR968SP,2013-05-30 01:00:00,
2013-05-29 21:05:00,75.7,60.8,30.12,SSW,193,0.0,0.0,59,0.00,,,0.00,WUHU216WMR968SP,2013-05-30 01:05:00,
2013-05-29 21:10:00,75.2,60.8,30.12,SSW,193,0.0,0.0,61,0.00,,,0.00,WUHU216WMR968SP,2013-05-30 01:10:00,
2013-05-29 21:15:00,74.7,60.8,30.12,SSW,193,0.0,0.0,62,0.00,,,0.00,WUHU216WMR968SP,2013-05-30 01:15:00,
2013-05-29 21:20:00,73.9,60.8,30.12,SSW,193,0.0,0.0,63,0.00,,,0.00,WUHU216WMR968SP,2013-05-30 01:20:00,
2013-05-29 21:25:00,73.4,60.8,30.12,SSW,193,0.0,0.0,64,0.00,,,0.00,WUHU216WMR968SP,2013-05-30 01:25:00,
2013-05-29 21:30:00,72.9,60.8,30.12,SSW,193,0.0,0.0,65,0.00,,,0.00,WUHU216WMR968SP,2013-05-30 01:30:00,
2013-05-29 21:35:00,72.5,60.8,30.12,SSW,193,0.0,0.0,65,0.00,,,0.00,WUHU216WMR968SP,2013-05-30 01:35:00,
2013-05-29 21:40:00,72.1,59.0,30.15,South,189,0.0,0.0,66,0.00,,,0.00,WUHU216WMR968SP,2013-05-30 01:40:00,
2013-05-29 21:45:00,71.8,60.8,30.15,South,183,0.0,0.0,67,0.00,,,0.00,WUHU216WMR968SP,2013-05-30 01:45:00,
2013-05-29 21:50:00,71.4,60.8,30.15,South,183,0.0,0.0,68,0.00,,,0.00,WUHU216WMR968SP,2013-05-30 01:50:00,
2013-05-29 21:55:00,71.1,60.8,30.15,South,183,0.0,0.0,68,0.00,,,0.00,WUHU216WMR968SP,2013-05-30 01:55:00,
2013-05-29 22:00:00,70.7,60.8,30.15,South,183,0.0,0.0,69,0.00,,,0.00,WUHU216WMR968SP,2013-05-30 02:00:00,
2013-05-29 22:05:00,70.3,59.0,30.15,South,183,0.0,0.0,70,0.00,,,0.00,WUHU216WMR968SP,2013-05-30 02:05:00,
2013-05-29 22:10:00,70.3,59.0,30.15,SE,129,0.0,0.0,70,0.00,,,0.00,WUHU216WMR968SP,2013-05-30 02:10:00,
2013-05-29 22:15:00,70.2,59.0,30.15,SE,129,0.0,0.0,70,0.00,,,0.00,WUHU216WMR968SP,2013-05-30 02:15:00,
2013-05-29 22:20:00,70.0,60.8,30.15,SE,129,0.0,0.0,71,0.00,,,0.00,WUHU216WMR968SP,2013-05-30 02:20:00,
2013-05-29 22:25:00,70.0,60.8,30.15,SE,129,0.0,0.0,71,0.00,,,0.00,WUHU216WMR968SP,2013-05-30 02:25:00,
2013-05-29 22:30:00,69.8,60.8,30.15,SE,129,0.0,0.0,71,0.00,,,0.00,WUHU216WMR968SP,2013-05-30 02:30:00,
2013-05-29 22:35:00,69.4,60.8,30.15,SE,129,0.0,0.0,73,0.00,,,0.00,WUHU216WMR968SP,2013-05-30 02:35:00,
2013-05-29 22:40:00,69.1,60.8,30.15,SE,129,0.0,0.0,74,0.00,,,0.00,WUHU216WMR968SP,2013-05-30 02:40:00,
2013-05-29 22:46:00,68.7,59.0,30.15,SE,129,0.0,0.0,75,0.00,,,0.00,WUHU216WMR968SP,2013-05-30 02:46:00,
2013-05-29 22:51:00,68.5,60.8,30.15,SE,129,0.0,0.0,76,0.00,,,0.00,WUHU216WMR968SP,2013-05-30 02:51:00,
2013-05-29 22:56:00,68.4,60.8,30.15,SE,129,0.0,0.0,76,0.00,,,0.00,WUHU216WMR968SP,2013-05-30 02:56:00,
2013-05-29 23:01:00,68.0,60.8,30.15,SE,129,0.0,0.0,77,0.00,,,0.00,WUHU216WMR968SP,2013-05-30 03:01:00,
2013-05-29 23:06:00,67.8,60.8,30.15,SE,129,0.0,0.0,78,0.00,,,0.00,WUHU216WMR968SP,2013-05-30 03:06:00,
2013-05-29 23:11:00,67.6,60.8,30.15,SE,129,0.0,0.0,79,0.00,,,0.00,WUHU216WMR968SP,2013-05-30 03:11:00,
2013-05-29 23:16:00,67.6,60.8,30.15,SE,129,0.0,0.0,79,0.00,,,0.00,WUHU216WMR968SP,2013-05-30 03:16:00,
2013-05-29 23:21:00,67.5,60.8,30.15,SE,129,0.0,0.0,80,0.00,,,0.00,WUHU216WMR968SP,2013-05-30 03:21:00,
2013-05-29 23:26:00,67.3,60.8,30.15,SE,129,0.0,0.0,80,0.00,,,0.00,WUHU216WMR968SP,2013-05-30 03:26:00,
2013-05-29 23:31:00,67.1,62.6,30.15,SE,129,0.0,0.0,81,0.00,,,0.00,WUHU216WMR968SP,2013-05-30 03:31:00,
2013-05-29 23:36:00,67.1,62.6,30.15,SE,129,0.0,0.0,81,0.00,,,0.00,WUHU216WMR968SP,2013-05-30 03:36:00,
2013-05-29 23:41:00,66.9,60.8,30.15,SE,129,0.0,0.0,81,0.00,,,0.00,WUHU216WMR968SP,2013-05-30 03:41:00,
2013-05-29 23:46:00,66.7,60.8,30.15,SE,129,0.0,0.0,81,0.00,,,0.00,WUHU216WMR968SP,2013-05-30 03:46:00,
2013-05-29 23:51:00,66.6,60.8,30.15,SE,129,0.0,0.0,82,0.00,,,0.00,WUHU216WMR968SP,2013-05-30 03:51:00,
2013-05-29 23:56:00,66.6,60.8,30.15,SE,129,0.0,0.0,82,0.00,,,0.00,WUHU216WMR968SP,2013-05-30 03:56:00,